Orbital Elements at Epoch 2459200.5 (2020-Dec-17.0) TDB
Reference: JPL 20 (heliocentric ecliptic J2000)
Element | Value | Uncertainty (1-sigma) | Units |
e | .06059074374661657 | 4.8402e-08 | |
a | 2.253285040589961 | 1.1551e-08 | au |
q | 2.11675682410749 | 1.0773e-07 | au |
i | 7.336491502686767 | 5.679e-06 | deg |
node | 340.0788597250005 | 2.7297e-05 | deg |
peri | 143.3356111374798 | 4.5753e-05 | deg |
M | 189.7745358906158 | 3.6662e-05 | deg |
tp | 2459784.677267846360 (2022-Jul-24.17726785) | 0.00012685 | TDB |
period | 1235.442755436117 3.38 | 9.5002e-06 2.601e-08 | d yr |
n | .2913935092629349 | 2.2407e-09 | deg/d |
Q | 2.389813257072432 | 1.2251e-08 | au |
|
| | Orbit Determination Parameters
Additional Information
|